Meteo pe oră la

Astăzi, 11 Aprilie, Duminică

Timp Temperatura Precipitaţii Vânt Presiune Umiditate
00:00 +20°C° 0.4 mm 0 m/s 684 mmHg 97%
01:00 +20°C° 0.4 mm 0 m/s 683 mmHg 97%
02:00 +20°C° 0.7 mm 0 m/s 683 mmHg 97%
03:00 +20°C° 0.7 mm 0 m/s 683 mmHg 97%
04:00 +20°C° 0.7 mm 0 m/s 683 mmHg 97%
05:00 +20°C° 1 mm 0 m/s 683 mmHg 96%
06:00 +20°C° 1 mm 0 m/s 683 mmHg 96%
07:00 +22°C° 1 mm 1 m/s 684 mmHg 96%
08:00 +21°C° 0.5 mm 0 m/s 684 mmHg 93%
09:00 +22°C° 0.5 mm 0 m/s 684 mmHg 90%
10:00 +23°C° 0.5 mm 0 m/s 685 mmHg 88%
11:00 +23°C° 0.9 mm 0 m/s 684 mmHg 84%
12:00 +24°C° 0.9 mm 0 m/s 684 mmHg 81%
13:00 +27°C° 0.9 mm 1 m/s 683 mmHg 78%
14:00 +27°C° 0.5 mm 1 m/s 683 mmHg 79%
15:00 +26°C° 0.5 mm 1 m/s 682 mmHg 80%
16:00 +26°C° 0.5 mm 1 m/s 681 mmHg 81%
17:00 +25°C° 0.2 mm 1 m/s 682 mmHg 86%
18:00 +24°C° 0.2 mm 1 m/s 682 mmHg 91%
19:00 +23°C° 0.2 mm 1 m/s 682 mmHg 97%
20:00 +23°C° 0.2 mm 1 m/s 683 mmHg 97%
21:00 +23°C° 0.2 mm 1 m/s 683 mmHg 97%
22:00 +21°C° 0.2 mm 0 m/s 684 mmHg 97%
23:00 +21°C° 0.1 mm 0 m/s 683 mmHg 97%

Mâine, 12 Aprilie, Luni

Timp Temperatura Precipitaţii Vânt Presiune Umiditate
00:00 +20°C° 0.1 mm 0 m/s 683 mmHg 97%
01:00 +20°C° 0.1 mm 0 m/s 683 mmHg 97%
02:00 +20°C° 0.1 mm 0 m/s 683 mmHg 97%
03:00 +20°C° 0.1 mm 0 m/s 683 mmHg 96%
04:00 +20°C° 0.1 mm 0 m/s 683 mmHg 96%
05:00 +20°C° 0 mm 0 m/s 683 mmHg 95%
06:00 +21°C° 0 mm 0 m/s 683 mmHg 94%
07:00 +21°C° 0 mm 0 m/s 684 mmHg 93%
08:00 +24°C° 0.1 mm 1 m/s 684 mmHg 88%
09:00 +26°C° 0.1 mm 1 m/s 684 mmHg 83%
10:00 +27°C° 0.1 mm 1 m/s 685 mmHg 78%
11:00 +27°C° 0.4 mm 1 m/s 684 mmHg 78%
12:00 +27°C° 0.4 mm 1 m/s 683 mmHg 77%
13:00 +28°C° 0.4 mm 1 m/s 683 mmHg 77%
14:00 +27°C° 0.5 mm 1 m/s 682 mmHg 81%
15:00 +26°C° 0.5 mm 2 m/s 682 mmHg 84%
16:00 +26°C° 0.5 mm 2 m/s 681 mmHg 87%
17:00 +25°C° 0.5 mm 1 m/s 682 mmHg 90%
18:00 +24°C° 0.5 mm 1 m/s 682 mmHg 93%
19:00 +23°C° 0.5 mm 1 m/s 682 mmHg 96%
20:00 +23°C° 0.9 mm 1 m/s 683 mmHg 96%
21:00 +23°C° 0.9 mm 1 m/s 683 mmHg 97%
22:00 +21°C° 0.9 mm 0 m/s 684 mmHg 97%
23:00 +21°C° 0.2 mm 0 m/s 684 mmHg 97%

Poimâine, 13 Aprilie, Marţi

Timp Temperatura Precipitaţii Vânt Presiune Umiditate
00:00 +21°C° 0.2 mm 0 m/s 683 mmHg 97%
01:00 +21°C° 0.2 mm 0 m/s 683 mmHg 97%
02:00 +20°C° 0.3 mm 0 m/s 683 mmHg 97%
03:00 +20°C° 0.3 mm 0 m/s 683 mmHg 97%
04:00 +20°C° 0.3 mm 0 m/s 683 mmHg 97%
05:00 +20°C° 0.4 mm 0 m/s 683 mmHg 96%
06:00 +21°C° 0.4 mm 0 m/s 683 mmHg 95%
07:00 +23°C° 0.4 mm 1 m/s 684 mmHg 95%
08:00 +24°C° 0.2 mm 1 m/s 684 mmHg 90%
09:00 +25°C° 0.2 mm 1 m/s 685 mmHg 84%
10:00 +27°C° 0.2 mm 1 m/s 685 mmHg 79%
11:00 +27°C° 0.6 mm 1 m/s 684 mmHg 79%
12:00 +27°C° 0.6 mm 1 m/s 684 mmHg 78%
13:00 +27°C° 0.6 mm 1 m/s 683 mmHg 77%
14:00 +27°C° 0.2 mm 1 m/s 683 mmHg 79%
15:00 +26°C° 0.2 mm 1 m/s 682 mmHg 81%
16:00 +26°C° 0.2 mm 1 m/s 682 mmHg 82%
17:00 +25°C° 0.2 mm 1 m/s 682 mmHg 86%
18:00 +24°C° 0.2 mm 1 m/s 682 mmHg 90%
19:00 +23°C° 0.2 mm 1 m/s 683 mmHg 94%
20:00 +23°C° 0.1 mm 1 m/s 683 mmHg 95%
21:00 +21°C° 0.1 mm 0 m/s 684 mmHg 95%
22:00 +21°C° 0.1 mm 0 m/s 684 mmHg 95%
23:00 +20°C° 0.1 mm 0 m/s 684 mmHg 95%

14 Aprilie, Miercuri

Timp Temperatura Precipitaţii Vânt Presiune Umiditate
00:00 +20°C° 0.1 mm 0 m/s 684 mmHg 95%
01:00 +20°C° 0.1 mm 0 m/s 684 mmHg 95%
02:00 +20°C° 0 mm 0 m/s 683 mmHg 95%
03:00 +20°C° 0 mm 0 m/s 683 mmHg 94%
04:00 +19°C° 0 mm 0 m/s 683 mmHg 94%
05:00 +20°C° 0 mm 0 m/s 683 mmHg 93%
06:00 +20°C° 0 mm 0 m/s 684 mmHg 92%
07:00 +21°C° 0 mm 0 m/s 684 mmHg 91%
08:00 +24°C° 0 mm 1 m/s 684 mmHg 84%
09:00 +26°C° 0 mm 1 m/s 685 mmHg 78%
10:00 +28°C° 0 mm 1 m/s 685 mmHg 71%
11:00 +28°C° 0.3 mm 1 m/s 684 mmHg 72%
12:00 +28°C° 0.3 mm 1 m/s 684 mmHg 73%
13:00 +28°C° 0.3 mm 2 m/s 683 mmHg 74%
14:00 +28°C° 0.7 mm 2 m/s 683 mmHg 78%
15:00 +27°C° 0.7 mm 2 m/s 682 mmHg 82%
16:00 +26°C° 0.7 mm 2 m/s 682 mmHg 86%
17:00 +25°C° 1 mm 2 m/s 682 mmHg 89%
18:00 +24°C° 1 mm 2 m/s 683 mmHg 93%
19:00 +23°C° 1 mm 1 m/s 683 mmHg 96%
20:00 +23°C° 1.6 mm 1 m/s 683 mmHg 97%
21:00 +23°C° 1.6 mm 1 m/s 684 mmHg 97%
22:00 +23°C° 1.6 mm 1 m/s 684 mmHg 98%
23:00 +23°C° 3.6 mm 1 m/s 684 mmHg 98%

15 Aprilie, Joi

Timp Temperatura Precipitaţii Vânt Presiune Umiditate
00:00 +23°C° 3.6 mm 1 m/s 684 mmHg 98%
01:00 +20°C° 3.6 mm 0 m/s 683 mmHg 98%
02:00 +20°C° 2.1 mm 0 m/s 683 mmHg 98%
03:00 +20°C° 2.1 mm 0 m/s 683 mmHg 98%
04:00 +20°C° 2.1 mm 0 m/s 683 mmHg 97%
05:00 +20°C° 1.7 mm 0 m/s 683 mmHg 97%
06:00 +22°C° 1.7 mm 1 m/s 684 mmHg 96%
07:00 +22°C° 1.7 mm 1 m/s 684 mmHg 95%
08:00 +23°C° 0.1 mm 1 m/s 684 mmHg 92%
09:00 +24°C° 0.1 mm 1 m/s 685 mmHg 89%
10:00 +25°C° 0.1 mm 1 m/s 685 mmHg 86%
11:00 +25°C° 0.1 mm 1 m/s 684 mmHg 84%
12:00 +26°C° 0.1 mm 1 m/s 684 mmHg 83%
13:00 +26°C° 0.1 mm 1 m/s 683 mmHg 82%
14:00 +26°C° 0.2 mm 1 m/s 683 mmHg 82%
15:00 +26°C° 0.2 mm 1 m/s 682 mmHg 83%
16:00 +26°C° 0.2 mm 1 m/s 682 mmHg 84%
17:00 +25°C° 0.2 mm 1 m/s 682 mmHg 88%
18:00 +24°C° 0.2 mm 1 m/s 682 mmHg 92%
19:00 +23°C° 0.2 mm 1 m/s 683 mmHg 96%
20:00 +23°C° 0.4 mm 1 m/s 683 mmHg 96%
21:00 +23°C° 0.4 mm 1 m/s 684 mmHg 95%
22:00 +20°C° 0.4 mm 0 m/s 684 mmHg 95%
23:00 +20°C° 0.5 mm 0 m/s 684 mmHg 95%

16 Aprilie, Vineri

Timp Temperatura Precipitaţii Vânt Presiune Umiditate
00:00 +20°C° 0.5 mm 0 m/s 684 mmHg 95%
01:00 +20°C° 0.5 mm 0 m/s 684 mmHg 95%
02:00 +20°C° 0.3 mm 0 m/s 683 mmHg 94%
03:00 +20°C° 0.3 mm 0 m/s 683 mmHg 94%
04:00 +20°C° 0.3 mm 0 m/s 683 mmHg 94%
05:00 +20°C° 0.2 mm 0 m/s 683 mmHg 93%
06:00 +22°C° 0.2 mm 1 m/s 684 mmHg 93%
07:00 +22°C° 0.2 mm 1 m/s 684 mmHg 93%
08:00 +24°C° 0.1 mm 1 m/s 685 mmHg 87%
09:00 +25°C° 0.1 mm 1 m/s 685 mmHg 81%
10:00 +26°C° 0.1 mm 1 m/s 685 mmHg 76%
11:00 +27°C° 0.2 mm 1 m/s 685 mmHg 74%
12:00 +28°C° 0.2 mm 1 m/s 684 mmHg 72%
13:00 +28°C° 0.2 mm 2 m/s 683 mmHg 70%
14:00 +27°C° 0.9 mm 2 m/s 683 mmHg 75%
15:00 +27°C° 0.9 mm 1 m/s 682 mmHg 80%
16:00 +26°C° 0.9 mm 1 m/s 682 mmHg 86%
17:00 +25°C° 0.7 mm 1 m/s 682 mmHg 89%
18:00 +24°C° 0.7 mm 1 m/s 683 mmHg 93%
19:00 +23°C° 0.7 mm 1 m/s 683 mmHg 97%
20:00 +23°C° 0.4 mm 1 m/s 683 mmHg 97%
21:00 +23°C° 0.4 mm 1 m/s 684 mmHg 97%
22:00 +23°C° 0.4 mm 1 m/s 684 mmHg 97%
23:00 +21°C° 0.4 mm 0 m/s 684 mmHg 97%
Arată mai mult

Formular de consimțământ

Meteoprog și furnizorii noștri de servicii pot stoca și accesa date personale, precum cookies, identificatori de dispozitiv sau alte tehnologii similare pe dispozitivul dumneavoastră și procesa astfel de date pentru a personaliza conținutul și reclamele, dar și pentru a oferi caracteristici de social media și pentru a analiza traficul.

  • Stocarea și/sau accesarea informațiilor pe dispozitivul dumneavoastră

    Cookies, identificatori de dispozitiv sau alte informații pot fi stocate sau accesate pe dispozitiv în scopurile indicate mai sus.

  • Reclame și conținut personalizat, evaluarea reclamelor și a conținutului, informații despre audiențe și dezvoltarea produselor

    Reclamele și conținutul pot fi personalizate pe baza unui profil. Pot fi adăugate date suplimentare pentru a personaliza mai bine reclamele și conținutul. Performanța reclamelor și conținutului poate fi măsurată. Pot fi obținute informații despre utilizatorii care au văzut reclamele și conținutul. Aceste date pot fi utilizate pentru a dezvolta sau îmbunătăți experiența utilizatorilor, sistemele și software-ul.

Dând clic pe ‘Sunt de acord’, permiteți utilizarea cookie-urilor menționate, a identificatorilor de dispozitiv, balizelor web sau altor tehnologii similare. Setările pot fi modificate din browser-ul dispozitivului dumneavoastră.

În anumite scopuri, interesele legitime pot prima asupra consimțământului. Puteți citi mai multe informații în acest sens în Politica privind Confidențialitatea Datelor și Cookie.